Location: Newark
(41.6500°N, 71.4833°W)
Time: 11:23:01
(UTC+00:00)

Courier 1B - Pass Details

Date: 21 January 2020
Orbit: 962 x 1209 km, 28.3° (Epoch: 25 February)

Event Time Altitude Azimuth Distance (km) Brightness Sun altitude
Rises 10:23:12 0° 242° (WSW) 4,016 - -19.3°
Reaches altitude 10° 10:26:22 10° 232° (SW) 3,084 - -18.7°
Exits shadow 10:26:36 11° 231° (SW) 3,021 9.7 -18.7°
Maximum altitude 10:32:48 30° 175° (S) 2,017 9.3 -17.5°
Drops below altitude 10° 10:39:21 10° 119° (ESE) 3,142 11.3 -16.3°
Sets 10:42:36 0° 109° (ESE) 4,102 12.6 -15.7°
